This demonstration page uses our WeatherBlox Daily Observations layout. Learn more.

Left ArrowRight Arrow

40.92945, -100.16068

Hourly Observations for May 15, 2020

Temp ( °F °C ) Dew Point ( °F °C ) Humidity (%) Winds ( mph kmh ) Pressure ( in mb ) Visibility ( mi km ) Precip ( " mm )
12:15 am 00:15 Clear 56 13.5 48 8.8 73 73 NE 8 13 29.88 1012 10 16.0934 0 0
12:35 am 00:35 Clear 55 12.8 48 8.8 77 77 NE 7 11 29.89 1012 10 16.0934 0 0
12:55 am 00:55 Clear 54 12.4 48 8.7 78 78 NE 8 13 29.9 1013 10 16.0934 0 0
1:15 am 01:15 Clear 55 13 47 8.6 75 75 ENE 8 13 29.9 1013 10 16.0934 0 0
1:35 am 01:35 Clear 55 12.7 47 8.6 76 76 E 7 11 29.91 1013 10 16.0934 0 0
1:55 am 01:55 Clear 53 11.8 47 8.6 81 81 ENE 7 11 29.9 1013 10 16.0934 0 0
2:15 am 02:15 Clear 54 12 48 8.7 80 80 ENE 8 13 29.91 1013 10 16.0934 0 0
2:35 am 02:35 Clear 55 13 48 8.8 76 76 E 7 11 29.9 1013 10 16.0934 0 0
2:55 am 02:55 Clear 56 13.4 48 8.8 74 74 ENE 8 13 29.88 1012 10 16.0934 0 0
3:15 am 03:15 Clear 55 13 48 8.7 75 75 ENE 7 11 29.89 1012 10 16.0934 0 0
3:35 am 03:35 Clear 55 12.8 48 8.8 77 77 ENE 6 9 29.9 1012 10 16.0934 0 0
3:55 am 03:55 Partly Cloudy 55 12.5 48 8.8 78 78 E 3 6 29.92 1013 10 16.0934 0 0
4:15 am 04:15 Mostly Cloudy 54 12.3 48 9 80 80 WSW 5 7 29.96 1015 10 16.0934 0 0
4:35 am 04:35 Cloudy with Rain 54 12.4 49 9.5 83 83 W 3 6 29.96 1015 10 16.0934 0 0
4:55 am 04:55 Cloudy with Light Rain 54 12.2 50 9.9 86 86 NNE 5 7 29.95 1014 10 16.0934 0 0
5:15 am 05:15 Cloudy 53 11.7 50 10.1 90 90 NNE 5 7 29.97 1015 10 16.0934 0 0
5:35 am 05:35 Cloudy with Light Rain 53 11.7 50 9.8 88 88 ENE 6 9 29.96 1014 10 16.0934 0 0
5:55 am 05:55 Partly Cloudy 53 11.5 49 9.5 88 88 ENE 3 6 29.96 1014 10 16.0934 0 0
6:15 am 06:15 Partly Cloudy 53 11.7 49 9.2 85 85 Calm 29.96 1014 10 16.0934 0 0
6:35 am 06:35 Mostly Cloudy 53 11.9 48 8.9 82 82 E 3 6 29.96 1015 10 16.0934 0 0
6:55 am 06:55 Mostly Cloudy 53 11.4 48 9.1 86 86 Calm 29.98 1015 10 16.0934 0 0
7:15 am 07:15 Cloudy 54 12.1 49 9.5 84 84 Calm 29.98 1015 10 16.0934 0 0
7:35 am 07:35 Cloudy 54 12.3 50 9.8 85 85 NNE 3 6 30 1016 10 16.0934 0 0
7:55 am 07:55 Cloudy 54 12.3 49 9.7 84 84 ENE 3 6 30 1016 10 16.0934 0 0
8:15 am 08:15 Cloudy with Light Rain 54 12.2 48 9.1 82 82 ENE 6 9 30 1016 10 16.0934 0 0
8:35 am 08:35 Cloudy 54 12.4 49 9.2 81 81 ENE 5 7 30.01 1016 10 16.0934 0 0
8:55 am 08:55 Cloudy 54 12.4 48 8.7 78 78 E 3 6 30.01 1016 10 16.0934 0 0
9:15 am 09:15 Cloudy 55 12.9 48 8.7 76 76 E 5 7 30 1016 10 16.0934 0 0
9:35 am 09:35 Cloudy 56 13.1 46 8 71 71 E 3 6 30.01 1016 10 16.0934 0 0
9:55 am 09:55 Cloudy 56 13.5 47 8.6 72 72 E 8 13 30.01 1016 10 16.0934 0 0
10:15 am 10:15 Mostly Cloudy 56 13.5 47 8.4 71 71 E 7 11 30 1016 10 16.0934 0 0
10:35 am 10:35 Partly Cloudy 57 14 48 9.1 73 73 E 8 13 29.99 1016 10 16.0934 0 0
10:55 am 10:55 Partly Cloudy 58 14.6 49 9.4 71 71 E 6 9 29.99 1016 10 16.0934 0 0
11:15 am 11:15 Mostly Cloudy 59 15.2 50 9.8 70 70 ESE 7 11 29.98 1015 10 16.0934 0 0
11:35 am 11:35 Mostly Cloudy 62 16.4 51 10.6 69 69 E 8 13 29.97 1015 10 16.0934 0 0
11:55 am 11:55 Mostly Cloudy 63 17.1 51 10.7 66 66 ESE 8 13 29.98 1015 10 16.0934 0 0
12:15 pm 12:15 Mostly Cloudy 63 17.4 51 10.5 64 64 SE 9 15 29.97 1015 10 16.0934 0 0
12:35 pm 12:35 Cloudy 64 17.8 52 11 65 65 ESE 6 9 29.97 1015 10 16.0934 0 0
12:55 pm 12:55 Cloudy 64 17.7 52 11 65 65 ESE 5 7 29.97 1015 10 16.0934 0 0
1:15 pm 13:15 Cloudy 65 18.5 52 11 62 62 ESE 5 7 29.96 1014 10 16.0934 0 0
1:35 pm 13:35 Mostly Cloudy 67 19.5 52 11.2 59 59 ESE 9 15 29.94 1014 10 16.0934 0 0
1:55 pm 13:55 Mostly Cloudy 68 19.9 51 10.3 54 54 ESE 12 19 29.91 1013 10 16.0934 0 0
2:15 pm 14:15 Partly Cloudy 71 21.7 52 11.1 51 51 SE 13 20 29.9 1012 10 16.0934 0 0
2:35 pm 14:35 Mostly Cloudy 71 21.4 51 10.3 49 49 SE 12 19 29.89 1012 10 16.0934 0 0
2:55 pm 14:55 Cloudy 72 22.1 50 10.2 47 47 ESE 10 17 29.87 1012 10 16.0934 0 0
3:15 pm 15:15 Cloudy 73 22.6 51 10.4 46 46 ESE 12 19 29.87 1012 10 16.0934 0 0
3:35 pm 15:35 Cloudy 73 22.6 50 9.8 44 44 ESE 7 11 29.86 1011 10 16.0934 0 0
3:55 pm 15:55 Cloudy 73 22.5 50 10.2 46 46 E 5 7 29.86 1011 10 16.0934 0 0
4:15 pm 16:15 Mostly Cloudy 73 22.8 51 10.6 46 46 SE 9 15 29.84 1010 10 16.0934 0 0
4:35 pm 16:35 Cloudy 74 23.1 49 9.6 42 42 SSE 6 9 29.83 1010 10 16.0934 0 0
4:55 pm 16:55 Mostly Cloudy 73 22.6 51 10.7 47 47 ESE 6 9 29.82 1010 10 16.0934 0 0
5:15 pm 17:15 Mostly Cloudy 75 24 50 9.9 41 41 ESE 13 20 29.8 1009 10 16.0934 0 0
5:35 pm 17:35 Mostly Cloudy 73 22.7 49 9.2 42 42 ESE 8 13 29.81 1009 10 16.0934 0 0
5:55 pm 17:55 Mostly Cloudy 75 23.9 49 9.6 40 40 SE 13 20 29.79 1009 10 16.0934 0 0
6:15 pm 18:15 Partly Cloudy 74 23.4 48 9.1 40 40 SE 14 22 29.78 1009 10 16.0934 0 0
6:35 pm 18:35 Mostly Cloudy 73 22.7 48 9 42 42 SE 13 20 29.79 1009 10 16.0934 0 0
6:55 pm 18:55 Mostly Cloudy 74 23.2 49 9.4 42 42 SE 15 24 29.78 1008 10 16.0934 0 0
7:15 pm 19:15 Partly Cloudy 73 22.9 48 9.1 42 42 SE 12 19 29.76 1008 10 16.0934 0 0
7:35 pm 19:35 Sunny 72 22.2 48 8.9 43 43 SE 10 17 29.76 1008 10 16.0934 0 0
7:55 pm 19:55 Sunny 71 21.4 48 9 45 45 SE 9 15 29.78 1008 10 16.0934 0 0
8:15 pm 20:15 Sunny 68 19.8 49 9.4 51 51 SE 7 11 29.8 1009 10 16.0934 0 0
8:35 pm 20:35 Sunny 66 18.9 49 9.2 54 54 SE 7 11 29.82 1010 10 16.0934 0 0
8:55 pm 20:55 Clear 65 18.1 48 8.8 55 55 SE 8 13 29.83 1010 10 16.0934 0 0
9:15 pm 21:15 Clear 65 18.5 46 7.9 50 50 SE 9 15 29.84 1010 10 16.0934 0 0
9:35 pm 21:35 Mostly Cloudy 65 18.3 47 8.1 52 52 SE 7 11 29.86 1011 10 16.0934 0 0
9:55 pm 21:55 Cloudy 63 17 47 8.6 58 58 ESE 6 9 29.88 1012 10 16.0934 0 0
10:15 pm 22:15 Cloudy 64 17.7 47 8.5 55 55 SE 8 13 29.86 1011 10 16.0934 0 0
10:35 pm 22:35 Mostly Cloudy 63 17.2 47 8.5 57 57 ESE 7 11 29.88 1012 10 16.0934 0 0
10:55 pm 22:55 Partly Cloudy 62 16.6 47 8.4 59 59 ESE 12 19 29.87 1012 10 16.0934 0 0
11:15 pm 23:15 Clear 63 17.1 47 8.5 57 57 ESE 14 22 29.87 1011 10 16.0934 0 0
11:35 pm 23:35 Partly Cloudy 62 16.9 48 8.8 59 59 ESE 12 19 29.86 1011 10 16.0934 0 0
11:55 pm 23:55 Mostly Cloudy 62 16.4 48 9 62 62 SE 13 20 29.86 1011 10 16.0934 0 0

Powered by AerisWeather